Time,TemperatureF,DewpointF,PressureIn,WindDirection,WindDirectionDegrees,WindSpeedMPH,WindSpeedGustMPH,Humidity,HourlyPrecipIn,Conditions,Clouds,dailyrainin,SoftwareType,DateUTC
2013-01-13 00:07:00,69.1,66.0,30.06,SE,128,0.0,-999.0,90,-99.99,,,0.00,weatherlink.com 1.10,2013-01-13 05:07:00,
2013-01-13 00:22:00,69.1,66.0,30.06,SE,126,0.0,-999.0,89,-99.99,,,0.00,weatherlink.com 1.10,2013-01-13 05:22:00,
2013-01-13 00:37:00,68.8,66.0,30.06,SE,127,0.0,-999.0,90,-99.99,,,0.00,weatherlink.com 1.10,2013-01-13 05:37:00,
2013-01-13 00:52:00,68.5,66.0,30.06,SE,128,0.0,-999.0,92,-99.99,,,0.00,weatherlink.com 1.10,2013-01-13 05:52:00,
2013-01-13 01:07:00,68.1,65.0,30.06,SE,128,0.0,-999.0,91,-99.99,,,0.00,weatherlink.com 1.10,2013-01-13 06:07:00,
2013-01-13 01:22:00,67.7,65.0,30.06,SE,128,0.0,-999.0,91,-99.99,,,0.00,weatherlink.com 1.10,2013-01-13 06:22:00,
2013-01-13 01:37:00,67.9,65.0,30.05,SE,128,0.0,-999.0,91,-99.99,,,0.00,weatherlink.com 1.10,2013-01-13 06:37:00,
2013-01-13 01:52:00,67.7,65.0,30.05,SE,128,0.0,-999.0,90,-99.99,,,0.00,weatherlink.com 1.10,2013-01-13 06:52:00,
2013-01-13 02:08:00,66.9,64.0,30.05,SE,128,0.0,-999.0,91,-99.99,,,0.00,weatherlink.com 1.10,2013-01-13 07:08:00,
2013-01-13 02:22:00,66.1,64.0,30.05,SE,128,0.0,-999.0,93,-99.99,,,0.00,weatherlink.com 1.10,2013-01-13 07:22:00,
2013-01-13 02:37:00,66.4,64.0,30.05,SE,128,0.0,-999.0,93,-99.99,,,0.00,weatherlink.com 1.10,2013-01-13 07:37:00,
2013-01-13 02:52:00,66.6,65.0,30.05,SE,128,0.0,-999.0,93,-99.99,,,0.00,weatherlink.com 1.10,2013-01-13 07:52:00,
2013-01-13 03:07:00,66.6,65.0,30.05,SE,128,0.0,-999.0,93,-99.99,,,0.00,weatherlink.com 1.10,2013-01-13 08:07:00,
2013-01-13 03:22:00,66.9,65.0,30.05,SE,128,0.0,-999.0,94,-99.99,,,0.00,weatherlink.com 1.10,2013-01-13 08:22:00,
2013-01-13 03:37:00,67.3,66.0,30.05,SE,128,0.0,-999.0,94,-99.99,,,0.00,weatherlink.com 1.10,2013-01-13 08:37:00,
2013-01-13 03:52:00,67.5,66.0,30.05,SE,128,0.0,-999.0,93,-99.99,,,0.00,weatherlink.com 1.10,2013-01-13 08:52:00,
2013-01-13 04:07:00,67.0,65.0,30.05,SE,128,0.0,-999.0,93,-99.99,,,0.00,weatherlink.com 1.10,2013-01-13 09:07:00,
2013-01-13 04:22:00,66.2,65.0,30.05,SE,128,0.0,-999.0,94,-99.99,,,0.00,weatherlink.com 1.10,2013-01-13 09:22:00,
2013-01-13 04:37:00,65.4,64.0,30.04,SE,128,0.0,-999.0,95,-99.99,,,0.00,weatherlink.com 1.10,2013-01-13 09:37:00,
2013-01-13 04:52:00,65.2,64.0,30.04,SE,128,0.0,-999.0,96,-99.99,,,0.00,weatherlink.com 1.10,2013-01-13 09:52:00,
2013-01-13 05:07:00,64.9,64.0,30.03,SE,128,0.0,-999.0,96,-99.99,,,0.00,weatherlink.com 1.10,2013-01-13 10:07:00,
2013-01-13 05:22:00,64.5,63.0,30.03,SE,128,0.0,-999.0,96,-99.99,,,0.00,weatherlink.com 1.10,2013-01-13 10:22:00,
2013-01-13 05:37:00,64.6,64.0,30.03,SE,128,0.0,-999.0,97,-99.99,,,0.00,weatherlink.com 1.10,2013-01-13 10:37:00,
2013-01-13 05:52:00,64.6,64.0,30.03,SE,128,0.0,-999.0,97,-99.99,,,0.00,weatherlink.com 1.10,2013-01-13 10:52:00,
2013-01-13 06:07:00,64.6,64.0,30.04,SE,128,0.0,-999.0,98,-99.99,,,0.00,weatherlink.com 1.10,2013-01-13 11:07:00,
2013-01-13 06:22:00,64.5,64.0,30.04,SE,128,0.0,-999.0,97,-99.99,,,0.00,weatherlink.com 1.10,2013-01-13 11:22:00,
2013-01-13 06:37:00,64.0,64.0,30.04,SE,128,0.0,-999.0,98,-99.99,,,0.00,weatherlink.com 1.10,2013-01-13 11:37:00,
2013-01-13 06:52:00,63.8,63.0,30.04,SE,128,0.0,-999.0,98,-99.99,,,0.00,weatherlink.com 1.10,2013-01-13 11:52:00,
2013-01-13 07:07:00,63.7,63.0,30.05,SE,128,0.0,-999.0,98,-99.99,,,0.00,weatherlink.com 1.10,2013-01-13 12:07:00,
2013-01-13 07:22:00,64.0,64.0,30.05,SE,128,0.0,-999.0,98,-99.99,,,0.00,weatherlink.com 1.10,2013-01-13 12:22:00,
2013-01-13 07:52:00,65.8,65.0,30.05,SE,128,0.0,-999.0,98,-99.99,,,0.00,weatherlink.com 1.10,2013-01-13 12:52:00,
2013-01-13 08:07:00,67.7,67.0,30.05,SE,128,0.0,-999.0,96,-99.99,,,0.00,weatherlink.com 1.10,2013-01-13 13:07:00,
2013-01-13 08:22:00,69.2,68.0,30.05,SE,129,0.0,-999.0,94,-99.99,,,0.00,weatherlink.com 1.10,2013-01-13 13:22:00,
2013-01-13 08:37:00,70.8,68.0,30.06,SE,134,0.0,-999.0,90,-99.99,,,0.00,weatherlink.com 1.10,2013-01-13 13:37:00,
2013-01-13 08:52:00,72.1,68.0,30.06,ESE,123,0.0,-999.0,86,-99.99,,,0.00,weatherlink.com 1.10,2013-01-13 13:52:00,
2013-01-13 09:07:00,73.1,68.0,30.06,SE,129,4.0,-999.0,83,-99.99,,,0.00,weatherlink.com 1.10,2013-01-13 14:07:00,
2013-01-13 09:37:00,74.6,68.0,30.07,South,169,0.0,-999.0,79,-99.99,,,0.00,weatherlink.com 1.10,2013-01-13 14:37:00,
2013-01-13 09:53:00,75.2,68.0,30.08,ESE,111,5.0,-999.0,77,-99.99,,,0.00,weatherlink.com 1.10,2013-01-13 14:53:00,
2013-01-13 10:08:00,75.2,67.0,30.09,ESE,123,0.0,-999.0,75,-99.99,,,0.00,weatherlink.com 1.10,2013-01-13 15:08:00,
2013-01-13 10:23:00,75.7,67.0,30.09,SE,144,5.0,-999.0,75,-99.99,,,0.00,weatherlink.com 1.10,2013-01-13 15:23:00,
2013-01-13 10:38:00,76.2,67.0,30.10,East,83,4.0,-999.0,74,-99.99,,,0.00,weatherlink.com 1.10,2013-01-13 15:38:00,
2013-01-13 10:53:00,76.9,67.0,30.11,SE,130,5.0,-999.0,72,-99.99,,,0.00,weatherlink.com 1.10,2013-01-13 15:53:00,
2013-01-13 11:08:00,77.1,68.0,30.10,ESE,123,1.0,-999.0,73,-99.99,,,0.00,weatherlink.com 1.10,2013-01-13 16:08:00,
2013-01-13 11:23:00,77.6,68.0,30.10,SE,133,7.0,-999.0,71,-99.99,,,0.00,weatherlink.com 1.10,2013-01-13 16:23:00,
2013-01-13 11:38:00,77.7,68.0,30.10,SE,126,0.0,-999.0,71,-99.99,,,0.00,weatherlink.com 1.10,2013-01-13 16:38:00,
2013-01-13 11:53:00,77.1,68.0,30.09,East,96,6.0,-999.0,74,-99.99,,,0.00,weatherlink.com 1.10,2013-01-13 16:53:00,
2013-01-13 12:08:00,76.5,68.0,30.09,ESE,117,3.0,-999.0,74,-99.99,,,0.00,weatherlink.com 1.10,2013-01-13 17:08:00,
2013-01-13 12:23:00,77.4,69.0,30.09,ENE,75,7.0,-999.0,74,-99.99,,,0.00,weatherlink.com 1.10,2013-01-13 17:23:00,
2013-01-13 12:38:00,75.3,67.0,30.09,East,83,0.0,-999.0,76,-99.99,,,0.00,weatherlink.com 1.10,2013-01-13 17:38:00,
2013-01-13 12:53:00,76.9,67.0,30.08,SE,129,6.0,-999.0,72,-99.99,,,0.00,weatherlink.com 1.10,2013-01-13 17:53:00,
2013-01-13 13:08:00,76.7,67.0,30.08,East,99,7.0,-999.0,73,-99.99,,,0.00,weatherlink.com 1.10,2013-01-13 18:08:00,
2013-01-13 13:23:00,76.4,68.0,30.07,ENE,71,6.0,-999.0,74,-99.99,,,0.00,weatherlink.com 1.10,2013-01-13 18:23:00,
2013-01-13 13:38:00,76.3,67.0,30.07,SE,138,1.0,-999.0,74,-99.99,,,0.00,weatherlink.com 1.10,2013-01-13 18:38:00,
2013-01-13 13:53:00,76.3,67.0,30.06,East,90,7.0,-999.0,74,-99.99,,,0.00,weatherlink.com 1.10,2013-01-13 18:53:00,
2013-01-13 14:08:00,76.4,68.0,30.06,ESE,114,1.0,-999.0,74,-99.99,,,0.00,weatherlink.com 1.10,2013-01-13 19:08:00,
2013-01-13 14:23:00,76.4,68.0,30.06,East,82,6.0,-999.0,76,-99.99,,,0.00,weatherlink.com 1.10,2013-01-13 19:23:00,
2013-01-13 14:38:00,76.2,68.0,30.05,ESE,109,9.0,-999.0,75,-99.99,,,0.00,weatherlink.com 1.10,2013-01-13 19:38:00,
2013-01-13 14:53:00,76.0,68.0,30.05,SE,125,10.0,-999.0,76,-99.99,,,0.00,weatherlink.com 1.10,2013-01-13 19:53:00,
2013-01-13 15:08:00,75.7,68.0,30.05,East,82,7.0,-999.0,77,-99.99,,,0.00,weatherlink.com 1.10,2013-01-13 20:08:00,
2013-01-13 15:23:00,75.8,68.0,30.05,SE,130,9.0,-999.0,77,-99.99,,,0.00,weatherlink.com 1.10,2013-01-13 20:23:00,
2013-01-13 15:38:00,75.8,68.0,30.05,East,97,6.0,-999.0,77,-99.99,,,0.00,weatherlink.com 1.10,2013-01-13 20:38:00,
2013-01-13 15:53:00,75.1,68.0,30.05,SE,140,5.0,-999.0,79,-99.99,,,0.00,weatherlink.com 1.10,2013-01-13 20:53:00,
2013-01-13 16:08:00,74.6,68.0,30.06,East,85,11.0,-999.0,81,-99.99,,,0.00,weatherlink.com 1.10,2013-01-13 21:08:00,
2013-01-13 16:23:00,74.3,68.0,30.06,ESE,116,0.0,-999.0,80,-99.99,,,0.00,weatherlink.com 1.10,2013-01-13 21:23:00,
2013-01-13 16:38:00,74.2,68.0,30.07,ESE,118,11.0,-999.0,81,-99.99,,,0.00,weatherlink.com 1.10,2013-01-13 21:38:00,
2013-01-13 16:53:00,73.5,68.0,30.07,ESE,115,5.0,-999.0,82,-99.99,,,0.00,weatherlink.com 1.10,2013-01-13 21:53:00,
2013-01-13 17:08:00,73.1,68.0,30.08,ESE,121,0.0,-999.0,84,-99.99,,,0.00,weatherlink.com 1.10,2013-01-13 22:08:00,
2013-01-13 17:23:00,72.6,68.0,30.08,ESE,105,0.0,-999.0,84,-99.99,,,0.00,weatherlink.com 1.10,2013-01-13 22:23:00,
2013-01-13 17:38:00,72.2,68.0,30.08,ESE,119,0.0,-999.0,85,-99.99,,,0.00,weatherlink.com 1.10,2013-01-13 22:38:00,
2013-01-13 17:53:00,71.9,68.0,30.09,ESE,119,0.0,-999.0,86,-99.99,,,0.00,weatherlink.com 1.10,2013-01-13 22:53:00,
2013-01-13 18:08:00,71.7,67.0,30.09,ESE,121,0.0,-999.0,86,-99.99,,,0.00,weatherlink.com 1.10,2013-01-13 23:08:00,
2013-01-13 18:23:00,71.5,68.0,30.09,SE,136,1.0,-999.0,87,-99.99,,,0.00,weatherlink.com 1.10,2013-01-13 23:23:00,
2013-01-13 18:38:00,71.5,68.0,30.09,ESE,115,2.0,-999.0,87,-99.99,,,0.00,weatherlink.com 1.10,2013-01-13 23:38:00,
2013-01-13 18:53:00,71.4,67.0,30.09,SE,126,3.0,-999.0,87,-99.99,,,0.00,weatherlink.com 1.10,2013-01-13 23:53:00,
2013-01-13 19:08:00,71.5,67.0,30.09,ESE,117,3.0,-999.0,86,-99.99,,,0.00,weatherlink.com 1.10,2013-01-14 00:08:00,
2013-01-13 19:23:00,71.4,67.0,30.09,SE,129,5.0,-999.0,86,-99.99,,,0.00,weatherlink.com 1.10,2013-01-14 00:23:00,
2013-01-13 19:38:00,71.0,67.0,30.08,SE,128,0.0,-999.0,87,-99.99,,,0.00,weatherlink.com 1.10,2013-01-14 00:38:00,
2013-01-13 19:53:00,70.8,67.0,30.08,SE,130,5.0,-999.0,86,-99.99,,,0.00,weatherlink.com 1.10,2013-01-14 00:53:00,
2013-01-13 20:08:00,71.0,66.0,30.07,SE,136,3.0,-999.0,84,-99.99,,,0.00,weatherlink.com 1.10,2013-01-14 01:08:00,
2013-01-13 20:23:00,70.9,66.0,30.07,SE,130,1.0,-999.0,83,-99.99,,,0.00,weatherlink.com 1.10,2013-01-14 01:23:00,
2013-01-13 20:38:00,70.6,66.0,30.06,SE,129,0.0,-999.0,85,-99.99,,,0.00,weatherlink.com 1.10,2013-01-14 01:38:00,
2013-01-13 20:53:00,70.5,66.0,30.06,SE,134,0.0,-999.0,86,-99.99,,,0.00,weatherlink.com 1.10,2013-01-14 01:53:00,
2013-01-13 21:08:00,70.1,66.0,30.06,SE,134,0.0,-999.0,87,-99.99,,,0.00,weatherlink.com 1.10,2013-01-14 02:08:00,
2013-01-13 21:23:00,69.3,66.0,30.07,SE,134,0.0,-999.0,89,-99.99,,,0.00,weatherlink.com 1.10,2013-01-14 02:23:00,
2013-01-13 21:38:00,69.2,66.0,30.07,SE,134,0.0,-999.0,90,-99.99,,,0.00,weatherlink.com 1.10,2013-01-14 02:38:00,
2013-01-13 21:53:00,69.3,66.0,30.06,SE,134,0.0,-999.0,89,-99.99,,,0.00,weatherlink.com 1.10,2013-01-14 02:53:00,
2013-01-13 22:08:00,69.0,66.0,30.07,SE,134,0.0,-999.0,90,-99.99,,,0.00,weatherlink.com 1.10,2013-01-14 03:08:00,
2013-01-13 22:23:00,69.1,66.0,30.07,SE,134,0.0,-999.0,90,-99.99,,,0.00,weatherlink.com 1.10,2013-01-14 03:23:00,
2013-01-13 22:38:00,68.6,66.0,30.07,SE,134,0.0,-999.0,91,-99.99,,,0.00,weatherlink.com 1.10,2013-01-14 03:38:00,
2013-01-13 22:53:00,68.7,66.0,30.07,SE,134,0.0,-999.0,91,-99.99,,,0.00,weatherlink.com 1.10,2013-01-14 03:53:00,
2013-01-13 23:08:00,67.9,66.0,30.08,SE,134,0.0,-999.0,92,-99.99,,,0.00,weatherlink.com 1.10,2013-01-14 04:08:00,
2013-01-13 23:23:00,67.2,65.0,30.08,SE,134,0.0,-999.0,93,-99.99,,,0.00,weatherlink.com 1.10,2013-01-14 04:23:00,
2013-01-13 23:38:00,66.5,65.0,30.08,SE,134,0.0,-999.0,94,-99.99,,,0.00,weatherlink.com 1.10,2013-01-14 04:38:00,
2013-01-13 23:53:00,65.8,64.0,30.09,SE,134,0.0,-999.0,94,-99.99,,,0.00,weatherlink.com 1.10,2013-01-14 04:53:00,